Regional Weather Roundup
Issued by NWS

Home | Current Version | Previous Version | Graphics & Text | Print | Product List | Glossary On
Versions: 1 2 3 4 5 6 7 8 9 10 11 12 13 14 15 16 17 18 19 20 21 22 23 24 25 26 27 28 29 30 31 32 33 34 35 36 37 38 39 40 41 42 43 44 45 46 47 48 49 50
000
ASUS45 KPSR 240510
RWRAZ

ARIZONA REGIONAL HOURLY WEATHER ROUNDUP
NATIONAL WEATHER SERVICE PHOENIX AZ
1000 PM MST WED JUL 23 2014

NOTE: FAIR INDICATES FEW OR NO CLOUDS BELOW 12,000 FEET WITH NO
SIGNIFICANT WEATHER AND/OR OBSTRUCTIONS TO VISIBILITY.

AZZ001>003-036-240600-
NORTHWEST ARIZONA

CITY           SKY/WX    TMP DP  RH WIND       PRES   REMARKS
BULLHEAD CITY  CLEAR    104  32   8 S3        29.76R
KINGMAN        CLEAR     86  36  16 S7        30.02R
$$

AZZ004>008-015-016-018-240600-
NORTH CENTRAL ARIZONA

CITY           SKY/WX    TMP DP  RH WIND       PRES   REMARKS
GRAND CANYON   CLOUDY    77  42  28 S5        30.32R
WILLIAMS       CLOUDY    77  46  33 SE12      30.39S
PRESCOTT       CLOUDY    82  51  34 SE21G36   30.20R
FLAGSTAFF      CLOUDY    71  49  45 NE3       30.40R
PAYSON         CLOUDY    77  57  50 CALM      30.27F
PAGE           MOCLDY    91  51  25 SE28G41   30.07R
$$

AZZ009>014-017-240600-
NORTHEAST ARIZONA

CITY           SKY/WX    TMP DP  RH WIND       PRES   REMARKS
WINSLOW        CLOUDY    74  58  57 S10       30.21F
SAINT JOHNS    MOCLDY    70  64  81 CALM      30.30F
WINDOW ROCK    MOCLDY    70  50  49 CALM      30.40R
SHOW LOW       MOCLDY    66  54  63 CALM      30.38S
$$

AZZ023-240600-
GREATER PHOENIX AREA

CITY           SKY/WX    TMP DP  RH WIND       PRES   REMARKS
PHOENIX        CLOUDY   102  59  24 N9        29.85R HX 102
BUCKEYE          N/A    104  52  17 NE13G20   29.83R HX 101
LUKE AFB       NOT AVBL
DEER VALLEY    CLOUDY    98  57  25 E9G18     29.91R
SCOTTSDALE     TSTM      91  65  41 E15G22    29.91R
MESA-GATEWAY   MOCLDY    99  55  23 MISG      29.89R
$$

AZZ027-028-240600-
SOUTHWEST MARICOPA COUNTY AND PINAL COUNTY

CITY           SKY/WX    TMP DP  RH WIND       PRES   REMARKS
CASA GRANDE    MOCLDY    97  57  26 SE9G21    29.90R
GILA BEND      MOCLDY   106  45  12 E1        29.80R HX 101
$$

AZZ503-504-507>509-240600-
SOUTHEAST ARIZONA

CITY           SKY/WX    TMP DP  RH WIND       PRES   REMARKS
TUCSON         CLOUDY    89  62  40 S8        30.03R
DAVIS-MONTHAN  CLOUDY    87  62  42 S7        30.01S
SIERRA VISTA   PTCLDY    81  55  41 W3        30.19R
DOUGLAS        CLEAR     80  50  34 E7        30.14R
SAFFORD        PTCLDY    85  58  39 E8        30.06R
$$

AZZ020-021-025-026-031-240600-
SOUTHWEST ARIZONA

CITY           SKY/WX    TMP DP  RH WIND       PRES   REMARKS
YUMA           NOT AVBL
$$

CAZ031-033-041-043-047-048-061-240600-
SOUTHERN CALIFORNIA

CITY           SKY/WX    TMP DP  RH WIND       PRES   REMARKS
DOWNTOWN L.A.  CLEAR     72  60  66 CALM      29.89R
L.A. AIRPORT   CLEAR     69  62  78 SW7       29.89R
SAN DIEGO      PTCLDY    72  64  76 W5        29.92R
BURBANK        CLEAR     79  57  46 VRB6      29.90R
ONTARIO        PTCLDY    80  54  40 SW7       29.92R
RIVERSIDE      CLEAR     80  50  34 W5        29.92R
PALM SPRINGS   CLEAR    103  37  10 NW13      29.77R
EL CENTRO NAS  PTCLDY   101  42  13 SW13      29.72R
IMPERIAL       CLEAR     99  44  15 W12       29.71R
BLYTHE         CLEAR    104  33   8 W8        29.73R
NEEDLES        CLEAR    104  25   6 W15       29.77R
$$

NVZ020-UTZ003-240600-
SOUTHERN NEVADA-UTAH

CITY           SKY/WX    TMP DP  RH WIND       PRES   REMARKS
LAS VEGAS      PTCLDY    99  22   6 S9        29.83R
SALT LAKE CITY MOCLDY    90  42  18 S20       29.94S
$$

NMZ009-TXZ055-240600-
NEW MEXICO-WEST TEXAS

CITY           SKY/WX    TMP DP  RH WIND       PRES   REMARKS
ALBUQUERQUE    PTCLDY    78  48  34 S8        30.31R
EL PASO        CLEAR     82  49  31 E9        30.17R
$$


........................KEY........................
SKY/WX - SKY CONDITION/WEATHER
TMP    - TEMPERATURE IN FAHRENHEIT
DP     - DEW POINT IN FAHRENHEIT
RH     - RELATIVE HUMIDITY IN PERCENT
WIND   - DIRECTION AND SPEED IN MILES PER HOUR (MPH)
VRB    - VARIABLE WIND DIRECTION
PRES   - MEAN SEA LEVEL PRESSURE IN INCHES OF MERCURY
         F - FALLING PRESSURE   R - RISING PRESSURE
         S - STEADY PRESSURE
VSB    - VISIBILITY IN MILES
HX     - HEAT INDEX IN FAHRENHEIT
WCI    - WIND CHILL INDEX IN FAHRENHEIT
TC     - TEMPERATURE IN CELSIUS WHICH IS ALSO KNOWN AS
         TEMPERATURE IN CENTIGRADE
AFB    - AIR FORCE BASE
         LUKE AFB IS LUKE AIR FORCE BASE
         DAVIS-MONTHAN IS DAVIS-MONTHAN AIR FORCE BASE
NAS    - NAVAL AIR STATION
         EL CENTRO NAS IS EL CENTRO NAVAL AIR STATION
N/A    - NOT AVAILABLE


USA.gov is the U.S. government's official web portal to all federal, state and local government web resources and services.